Time,TemperatureF,DewpointF,PressureIn,WindDirection,WindDirectionDegrees,WindSpeedMPH,WindSpeedGustMPH,Humidity,HourlyPrecipIn,Conditions,Clouds,dailyrainin,SolarRadiationWatts/m^2,SoftwareType,DateUTC
2013-08-04 00:01:00,58.4,56.1,29.88,SSW,209,0.1,1.1,92,0.00,BKN,BKN,0.00,0.0,WeatherDisplay:10.37,2013-08-04 06:01:00,
2013-08-04 00:06:00,58.4,56.1,29.86,SSW,211,2.0,3.4,92,0.00,BKN,BKN,0.00,0.0,WeatherDisplay:10.37,2013-08-04 06:06:00,
2013-08-04 00:11:00,58.4,56.1,29.85,SSW,213,0.0,0.0,92,0.00,SCT,SCT,0.00,0.0,WeatherDisplay:10.37,2013-08-04 06:11:00,
2013-08-04 00:16:00,58.4,56.1,29.85,SSW,207,0.1,3.4,92,0.00,SCT,SCT,0.00,0.0,WeatherDisplay:10.37,2013-08-04 06:16:00,
2013-08-04 00:21:00,58.4,56.1,29.84,SSW,199,1.2,2.3,92,0.00,SCT,SCT,0.00,0.0,WeatherDisplay:10.37,2013-08-04 06:21:00,
2013-08-04 00:26:00,58.4,56.1,29.83,SSW,196,0.0,4.6,92,0.00,SCT,SCT,0.00,0.0,WeatherDisplay:10.37,2013-08-04 06:26:00,
2013-08-04 00:31:00,58.4,56.1,29.83,SSW,195,0.2,3.4,92,0.00,SCT,SCT,0.00,0.0,WeatherDisplay:10.37,2013-08-04 06:31:00,
2013-08-04 00:36:00,58.4,56.1,29.83,SSW,196,0.3,2.3,92,0.00,SCT,SCT,0.00,0.0,WeatherDisplay:10.37,2013-08-04 06:36:00,
2013-08-04 00:41:00,58.3,56.0,29.82,SSW,194,1.3,3.4,92,0.00,SCT,SCT,0.00,0.0,WeatherDisplay:10.37,2013-08-04 06:41:00,
2013-08-04 00:46:00,58.2,55.9,29.82,SSW,194,0.1,1.1,92,0.00,SCT,SCT,0.00,0.0,WeatherDisplay:10.37,2013-08-04 06:46:00,
2013-08-04 00:51:00,58.2,55.9,29.82,SSW,194,0.0,1.1,92,0.00,SCT,SCT,0.00,0.0,WeatherDisplay:10.37,2013-08-04 06:51:00,
2013-08-04 00:56:00,58.3,56.0,29.81,SSW,194,0.0,0.0,92,0.00,SCT,SCT,0.00,0.0,WeatherDisplay:10.37,2013-08-04 06:56:00,
2013-08-04 01:01:00,58.3,56.0,29.80,SSW,194,0.0,0.0,92,0.00,CLR,CLR,0.00,0.0,WeatherDisplay:10.37,2013-08-04 07:01:00,
2013-08-04 01:06:00,58.3,56.0,29.81,SSW,195,0.4,3.4,92,0.00,CLR,CLR,0.00,0.0,WeatherDisplay:10.37,2013-08-04 07:06:00,
2013-08-04 01:11:00,58.2,55.9,29.80,SSW,195,0.0,0.0,92,0.00,CLR,CLR,0.00,0.0,WeatherDisplay:10.37,2013-08-04 07:11:00,
2013-08-04 01:16:00,58.2,55.9,29.80,SSW,195,0.0,2.3,92,0.00,CLR,CLR,0.00,0.0,WeatherDisplay:10.37,2013-08-04 07:16:00,
2013-08-04 01:21:00,58.1,55.5,29.80,SSW,195,0.0,2.3,91,0.00,CLR,CLR,0.00,0.0,WeatherDisplay:10.37,2013-08-04 07:21:00,
2013-08-04 01:26:00,58.2,55.9,29.80,SSW,195,0.0,0.0,92,0.00,CLR,CLR,0.00,0.0,WeatherDisplay:10.37,2013-08-04 07:26:00,
2013-08-04 01:32:00,58.2,55.6,29.80,SSW,195,0.0,0.0,91,0.00,CLR,CLR,0.00,0.0,WeatherDisplay:10.37,2013-08-04 07:32:00,
2013-08-04 01:37:00,58.2,55.6,29.80,SSW,195,0.0,0.0,91,0.00,CLR,CLR,0.00,0.0,WeatherDisplay:10.37,2013-08-04 07:37:00,
2013-08-04 01:41:00,58.1,55.5,29.79,South,191,0.0,1.1,91,0.00,CLR,CLR,0.00,0.0,WeatherDisplay:10.37,2013-08-04 07:41:00,
2013-08-04 01:47:00,58.1,55.5,29.78,South,190,1.3,3.4,91,0.00,CLR,CLR,0.00,0.0,WeatherDisplay:10.37,2013-08-04 07:47:00,
2013-08-04 01:52:00,58.1,55.5,29.78,South,180,0.5,3.4,91,0.00,CLR,CLR,0.00,0.0,WeatherDisplay:10.37,2013-08-04 07:52:00,
2013-08-04 01:57:00,58.1,55.5,29.79,SSE,159,2.5,5.0,91,0.00,CLR,CLR,0.00,0.0,WeatherDisplay:10.37,2013-08-04 07:57:00,
2013-08-04 02:02:00,58.1,55.5,29.78,SSE,157,0.9,5.0,91,0.00,CLR,CLR,0.00,0.0,WeatherDisplay:10.37,2013-08-04 08:02:00,
2013-08-04 02:07:00,58.2,55.6,29.77,SSE,150,0.5,3.0,91,0.00,CLR,CLR,0.00,0.0,WeatherDisplay:10.37,2013-08-04 08:07:00,
2013-08-04 02:12:00,58.2,55.6,29.77,SSE,151,0.8,2.3,91,0.00,CLR,CLR,0.00,0.0,WeatherDisplay:10.37,2013-08-04 08:12:00,
2013-08-04 02:17:00,58.3,55.4,29.77,South,169,2.3,5.8,90,0.00,CLR,CLR,0.00,0.0,WeatherDisplay:10.37,2013-08-04 08:17:00,
2013-08-04 02:21:00,58.4,55.5,29.76,SSW,210,0.1,6.0,90,0.00,CLR,CLR,0.00,0.0,WeatherDisplay:10.37,2013-08-04 08:21:00,
2013-08-04 02:27:00,58.5,55.6,29.76,SW,220,2.0,3.4,90,0.00,CLR,CLR,0.00,0.0,WeatherDisplay:10.37,2013-08-04 08:27:00,
2013-08-04 02:32:00,58.7,55.5,29.76,South,187,0.9,3.4,89,0.00,CLR,CLR,0.00,0.0,WeatherDisplay:10.37,2013-08-04 08:32:00,
2013-08-04 02:36:00,59.0,55.4,29.76,South,170,0.3,2.3,88,0.00,CLR,CLR,0.00,0.0,WeatherDisplay:10.37,2013-08-04 08:36:00,
2013-08-04 02:42:00,59.0,55.1,29.76,SSE,157,1.3,4.6,87,0.00,CLR,CLR,0.00,0.0,WeatherDisplay:10.37,2013-08-04 08:42:00,
2013-08-04 02:46:00,59.0,55.1,29.76,SSE,155,0.4,2.3,87,0.00,CLR,CLR,0.00,0.0,WeatherDisplay:10.37,2013-08-04 08:46:00,
2013-08-04 02:52:00,59.3,55.1,29.76,SSW,202,1.6,6.0,86,0.00,CLR,CLR,0.00,0.0,WeatherDisplay:10.37,2013-08-04 08:52:00,
2013-08-04 02:57:00,59.4,54.9,29.75,South,178,1.3,3.4,85,0.00,CLR,CLR,0.00,0.0,WeatherDisplay:10.37,2013-08-04 08:57:00,
2013-08-04 03:02:00,59.5,54.7,29.74,South,179,1.5,3.4,84,0.00,CLR,CLR,0.00,0.0,WeatherDisplay:10.37,2013-08-04 09:02:00,
2013-08-04 03:07:00,59.6,54.8,29.76,South,180,0.3,2.3,84,0.00,CLR,CLR,0.00,0.0,WeatherDisplay:10.37,2013-08-04 09:07:00,
2013-08-04 03:12:00,59.8,54.6,29.76,South,183,0.0,0.0,83,0.00,CLR,CLR,0.00,0.0,WeatherDisplay:10.37,2013-08-04 09:12:00,
2013-08-04 03:16:00,59.9,54.4,29.76,South,184,0.1,1.1,82,0.00,CLR,CLR,0.00,0.0,WeatherDisplay:10.37,2013-08-04 09:16:00,
2013-08-04 03:22:00,60.0,54.5,29.75,SSW,198,1.5,6.0,82,0.00,CLR,CLR,0.00,0.0,WeatherDisplay:10.37,2013-08-04 09:22:00,
2013-08-04 03:27:00,60.2,54.3,29.75,WSW,248,1.0,3.4,81,0.00,CLR,CLR,0.00,0.0,WeatherDisplay:10.37,2013-08-04 09:27:00,
2013-08-04 03:31:00,60.3,54.4,29.75,SSE,167,0.7,3.4,81,0.00,CLR,CLR,0.00,0.0,WeatherDisplay:10.37,2013-08-04 09:31:00,
2013-08-04 03:37:00,60.4,54.2,29.75,SSW,192,0.5,4.6,80,0.00,CLR,CLR,0.00,0.0,WeatherDisplay:10.37,2013-08-04 09:37:00,
2013-08-04 03:42:00,60.5,54.3,29.74,SSW,195,0.7,3.4,80,0.00,CLR,CLR,0.00,0.0,WeatherDisplay:10.37,2013-08-04 09:42:00,
2013-08-04 03:47:00,60.6,54.4,29.74,South,179,2.6,4.6,80,0.00,CLR,CLR,0.00,0.0,WeatherDisplay:10.37,2013-08-04 09:47:00,
2013-08-04 03:52:00,60.6,54.4,29.73,South,180,1.2,4.6,80,0.00,CLR,CLR,0.00,0.0,WeatherDisplay:10.37,2013-08-04 09:52:00,
2013-08-04 03:57:00,60.6,54.4,29.73,South,180,0.7,2.3,80,0.00,CLR,CLR,0.00,0.0,WeatherDisplay:10.37,2013-08-04 09:57:00,
2013-08-04 04:02:00,60.6,54.4,29.73,South,183,0.1,1.1,80,0.00,CLR,CLR,0.00,0.0,WeatherDisplay:10.37,2013-08-04 10:02:00,
2013-08-04 04:07:00,60.6,54.4,29.74,South,184,2.1,3.4,80,0.00,CLR,CLR,0.00,0.0,WeatherDisplay:10.37,2013-08-04 10:07:00,
2013-08-04 04:11:00,60.5,54.3,29.74,South,187,0.7,3.4,80,0.00,CLR,CLR,0.00,0.0,WeatherDisplay:10.37,2013-08-04 10:11:00,
2013-08-04 04:17:00,60.5,54.3,29.74,South,190,0.8,3.4,80,0.00,CLR,CLR,0.00,0.0,WeatherDisplay:10.37,2013-08-04 10:17:00,
2013-08-04 04:21:00,60.6,54.4,29.74,SSW,192,1.7,3.4,80,0.00,CLR,CLR,0.00,0.0,WeatherDisplay:10.37,2013-08-04 10:21:00,
2013-08-04 04:27:00,60.7,54.1,29.74,SSW,213,2.4,6.9,79,0.00,CLR,CLR,0.00,0.0,WeatherDisplay:10.37,2013-08-04 10:27:00,
2013-08-04 04:31:00,60.8,54.2,29.74,South,182,0.8,3.4,79,0.00,CLR,CLR,0.00,0.0,WeatherDisplay:10.37,2013-08-04 10:31:00,
2013-08-04 04:32:00,60.8,54.2,29.74,South,182,1.1,3.4,79,0.00,CLR,CLR,0.00,0.0,WeatherDisplay:10.37,2013-08-04 10:32:00,
2013-08-04 04:37:00,60.9,54.3,29.74,SSW,209,1.8,3.4,79,0.00,CLR,CLR,0.00,0.0,WeatherDisplay:10.37,2013-08-04 10:37:00,
2013-08-04 04:41:00,61.0,54.1,29.74,South,179,2.4,4.6,78,0.00,CLR,CLR,0.00,0.0,WeatherDisplay:10.37,2013-08-04 10:41:00,
2013-08-04 04:47:00,61.1,54.2,29.74,South,188,0.0,3.4,78,0.00,CLR,CLR,0.00,0.0,WeatherDisplay:10.37,2013-08-04 10:47:00,
2013-08-04 04:52:00,61.1,54.2,29.73,SSW,193,0.3,2.3,78,0.00,CLR,CLR,0.00,0.0,WeatherDisplay:10.37,2013-08-04 10:52:00,
2013-08-04 04:57:00,61.0,54.1,29.74,SSW,194,1.5,3.4,78,0.00,CLR,CLR,0.00,0.0,WeatherDisplay:10.37,2013-08-04 10:57:00,
2013-08-04 05:02:00,60.9,54.0,29.74,SSW,194,0.0,0.0,78,0.00,FEW,FEW,0.00,0.0,WeatherDisplay:10.37,2013-08-04 11:02:00,
2013-08-04 05:06:00,60.9,54.0,29.82,SSE,152,0.9,3.4,78,0.00,FEW,FEW,0.00,0.0,WeatherDisplay:10.37,2013-08-04 11:06:00,
2013-08-04 05:12:00,60.8,53.9,29.82,SSE,152,0.1,1.1,78,0.00,FEW,FEW,0.00,0.0,WeatherDisplay:10.37,2013-08-04 11:12:00,
2013-08-04 05:17:00,60.8,53.9,29.82,SSE,152,0.0,0.0,78,0.00,FEW,FEW,0.00,0.0,WeatherDisplay:10.37,2013-08-04 11:17:00,
2013-08-04 05:21:00,60.8,53.9,29.82,SSE,152,0.6,2.3,78,0.00,FEW,FEW,0.00,0.0,WeatherDisplay:10.37,2013-08-04 11:21:00,
2013-08-04 05:27:00,60.7,53.8,29.82,SSE,152,0.0,0.0,78,0.00,FEW,FEW,0.00,0.0,WeatherDisplay:10.37,2013-08-04 11:27:00,
2013-08-04 05:32:00,60.7,53.8,29.82,SSE,152,0.1,1.1,78,0.00,FEW,FEW,0.00,0.0,WeatherDisplay:10.37,2013-08-04 11:32:00,
2013-08-04 05:37:00,60.6,53.7,29.82,SSE,156,1.0,3.4,78,0.00,FEW,FEW,0.00,0.0,WeatherDisplay:10.37,2013-08-04 11:37:00,
2013-08-04 05:42:00,60.4,53.5,29.82,SSE,156,1.0,2.3,78,0.00,FEW,FEW,0.00,0.0,WeatherDisplay:10.37,2013-08-04 11:42:00,
2013-08-04 05:47:00,60.3,53.4,29.82,SSE,156,0.0,0.0,78,0.00,FEW,FEW,0.00,0.0,WeatherDisplay:10.37,2013-08-04 11:47:00,
2013-08-04 05:52:00,60.2,53.7,29.82,SSE,156,0.1,1.0,79,0.00,FEW,FEW,0.00,0.0,WeatherDisplay:10.37,2013-08-04 11:52:00,
2013-08-04 05:57:00,60.0,53.5,29.82,SSE,156,0.0,0.0,79,0.00,FEW,FEW,0.00,0.0,WeatherDisplay:10.37,2013-08-04 11:57:00,
2013-08-04 06:02:00,59.8,53.3,29.82,SSE,156,0.8,2.3,79,0.00,SCT,SCT,0.00,0.0,WeatherDisplay:10.37,2013-08-04 12:02:00,
2013-08-04 06:07:00,59.7,53.2,29.83,SSE,156,0.0,1.1,79,0.00,SCT,SCT,0.00,5.0,WeatherDisplay:10.37,2013-08-04 12:07:00,
2013-08-04 06:11:00,59.6,53.1,29.84,SSE,156,0.0,0.0,79,0.00,SCT,SCT,0.00,7.0,WeatherDisplay:10.37,2013-08-04 12:11:00,
2013-08-04 06:17:00,59.5,53.0,29.84,SSE,156,0.0,0.0,79,0.00,SCT,SCT,0.00,9.0,WeatherDisplay:10.37,2013-08-04 12:17:00,
2013-08-04 06:22:00,59.5,53.3,29.83,SSE,157,0.0,0.0,80,0.00,SCT,SCT,0.00,14.0,WeatherDisplay:10.37,2013-08-04 12:22:00,
2013-08-04 06:27:00,59.5,53.3,29.83,SSE,158,0.0,0.0,80,0.00,SCT,SCT,0.00,19.0,WeatherDisplay:10.37,2013-08-04 12:27:00,
2013-08-04 06:32:00,59.4,53.2,29.84,SSE,158,0.0,0.0,80,0.00,SCT,SCT,0.00,25.0,WeatherDisplay:10.37,2013-08-04 12:32:00,
2013-08-04 06:37:00,59.2,53.0,29.84,SSE,158,0.0,0.0,80,0.00,SCT,SCT,0.00,26.0,WeatherDisplay:10.37,2013-08-04 12:37:00,
2013-08-04 06:41:00,59.0,52.8,29.84,SSE,157,0.0,0.0,80,0.00,SCT,SCT,0.00,46.0,WeatherDisplay:10.37,2013-08-04 12:41:00,
2013-08-04 06:47:00,59.0,53.2,29.85,SSE,158,0.0,0.0,81,0.00,SCT,SCT,0.00,116.0,WeatherDisplay:10.37,2013-08-04 12:47:00,
2013-08-04 06:52:00,59.1,53.6,29.85,SSE,158,0.0,0.0,82,0.00,SCT,SCT,0.00,118.0,WeatherDisplay:10.37,2013-08-04 12:52:00,
2013-08-04 06:57:00,59.1,53.6,29.86,SSE,157,0.0,0.0,82,0.00,SCT,SCT,0.00,49.0,WeatherDisplay:10.37,2013-08-04 12:57:00,
2013-08-04 07:02:00,59.3,53.8,29.86,SSE,158,0.0,0.0,82,0.00,SCT,SCT,0.00,60.0,WeatherDisplay:10.37,2013-08-04 13:02:00,
2013-08-04 07:07:00,59.5,54.0,29.91,SSE,157,0.0,0.0,82,0.00,SCT,SCT,0.00,155.0,WeatherDisplay:10.37,2013-08-04 13:07:00,
2013-08-04 07:12:00,59.7,54.2,29.92,SSE,158,0.0,0.0,82,0.00,SCT,SCT,0.00,172.0,WeatherDisplay:10.37,2013-08-04 13:12:00,
2013-08-04 07:17:00,59.9,54.4,29.92,SSE,158,0.0,0.0,82,0.00,SCT,SCT,0.00,72.0,WeatherDisplay:10.37,2013-08-04 13:17:00,
2013-08-04 07:22:00,60.0,54.5,29.92,SSE,158,0.0,0.0,82,0.00,SCT,SCT,0.00,207.0,WeatherDisplay:10.37,2013-08-04 13:22:00,
2013-08-04 07:27:00,60.2,54.7,29.92,SSE,157,0.0,3.4,82,0.00,SCT,SCT,0.00,230.0,WeatherDisplay:10.37,2013-08-04 13:27:00,
2013-08-04 07:32:00,60.4,54.9,29.93,SSE,158,0.4,3.0,82,0.00,SCT,SCT,0.00,244.0,WeatherDisplay:10.37,2013-08-04 13:32:00,
2013-08-04 07:37:00,60.9,55.0,29.92,SSE,157,0.0,0.0,81,0.00,SCT,SCT,0.00,264.0,WeatherDisplay:10.37,2013-08-04 13:37:00,
2013-08-04 07:42:00,61.6,55.4,29.92,SSE,158,0.9,2.3,80,0.00,SCT,SCT,0.00,283.0,WeatherDisplay:10.37,2013-08-04 13:42:00,
2013-08-04 07:47:00,62.2,55.3,29.92,SSE,158,0.0,0.0,78,0.00,SCT,SCT,0.00,308.0,WeatherDisplay:10.37,2013-08-04 13:47:00,
2013-08-04 07:52:00,62.7,55.4,29.91,SSE,158,0.0,0.0,77,0.00,SCT,SCT,0.00,341.0,WeatherDisplay:10.37,2013-08-04 13:52:00,
2013-08-04 07:57:00,63.2,55.1,29.91,SSE,158,0.0,0.0,75,0.00,SCT,SCT,0.00,343.0,WeatherDisplay:10.37,2013-08-04 13:57:00,
2013-08-04 08:02:00,63.8,55.7,29.90,SSE,158,0.7,2.3,75,0.00,SCT,SCT,0.00,390.0,WeatherDisplay:10.37,2013-08-04 14:02:00,
2013-08-04 08:07:00,64.6,55.7,29.90,SSE,158,0.0,0.0,73,0.00,SCT,SCT,0.00,336.0,WeatherDisplay:10.37,2013-08-04 14:07:00,
2013-08-04 08:12:00,65.3,55.7,29.90,SSE,158,0.3,1.1,71,0.00,SCT,SCT,0.00,285.0,WeatherDisplay:10.37,2013-08-04 14:12:00,
2013-08-04 08:17:00,65.9,55.8,29.90,SSE,158,0.0,0.0,70,0.00,SCT,SCT,0.00,301.0,WeatherDisplay:10.37,2013-08-04 14:17:00,
2013-08-04 08:22:00,66.3,55.8,29.90,South,189,1.8,3.4,69,0.00,SCT,SCT,0.00,471.0,WeatherDisplay:10.37,2013-08-04 14:22:00,
2013-08-04 08:27:00,66.7,56.2,29.89,South,189,0.0,0.0,69,0.00,SCT,SCT,0.00,504.0,WeatherDisplay:10.37,2013-08-04 14:27:00,
2013-08-04 08:32:00,67.2,56.3,29.89,South,188,0.0,0.0,68,0.00,SCT,SCT,0.00,422.0,WeatherDisplay:10.37,2013-08-04 14:32:00,
2013-08-04 08:37:00,67.4,56.1,29.89,South,188,0.0,0.0,67,0.00,SCT,SCT,0.00,357.0,WeatherDisplay:10.37,2013-08-04 14:37:00,
2013-08-04 08:42:00,67.7,55.9,29.90,South,188,0.0,1.0,66,0.00,SCT,SCT,0.00,408.0,WeatherDisplay:10.37,2013-08-04 14:42:00,
2013-08-04 08:47:00,68.0,56.2,29.90,South,188,0.4,2.3,66,0.00,SCT,SCT,0.00,406.0,WeatherDisplay:10.37,2013-08-04 14:47:00,
2013-08-04 08:52:00,68.1,56.3,29.90,South,188,0.0,0.0,66,0.00,SCT,SCT,0.00,320.0,WeatherDisplay:10.37,2013-08-04 14:52:00,
2013-08-04 08:57:00,68.2,56.4,29.90,South,188,0.5,2.3,66,0.00,SCT,SCT,0.00,438.0,WeatherDisplay:10.37,2013-08-04 14:57:00,
2013-08-04 09:02:00,68.6,56.8,29.89,South,188,0.0,0.0,66,0.00,SCT,SCT,0.00,635.0,WeatherDisplay:10.37,2013-08-04 15:02:00,
2013-08-04 09:07:00,69.0,56.3,29.88,South,187,0.3,1.1,64,0.00,SCT,SCT,0.00,513.0,WeatherDisplay:10.37,2013-08-04 15:07:00,
2013-08-04 09:12:00,69.5,56.3,29.88,South,187,0.0,0.0,63,0.00,SCT,SCT,0.00,680.0,WeatherDisplay:10.37,2013-08-04 15:12:00,
2013-08-04 09:17:00,70.2,56.6,29.88,South,188,0.9,3.4,62,0.00,SCT,SCT,0.00,529.0,WeatherDisplay:10.37,2013-08-04 15:17:00,
2013-08-04 09:22:00,70.7,57.0,29.87,South,187,0.0,0.0,62,0.00,SCT,SCT,0.00,647.0,WeatherDisplay:10.37,2013-08-04 15:22:00,
2013-08-04 09:27:00,71.2,57.5,29.86,SSW,198,0.0,0.0,62,0.00,SCT,SCT,0.00,671.0,WeatherDisplay:10.37,2013-08-04 15:27:00,
2013-08-04 09:32:00,71.5,57.3,29.86,SSW,198,0.2,1.1,61,0.00,SCT,SCT,0.00,373.0,WeatherDisplay:10.37,2013-08-04 15:32:00,
2013-08-04 09:37:00,71.7,57.5,29.86,SSW,198,0.0,1.1,61,0.00,SCT,SCT,0.00,388.0,WeatherDisplay:10.37,2013-08-04 15:37:00,
2013-08-04 09:42:00,71.8,58.1,29.87,SSW,198,0.1,1.1,62,0.00,SCT,SCT,0.00,411.0,WeatherDisplay:10.37,2013-08-04 15:42:00,
2013-08-04 09:47:00,72.2,58.5,29.87,SSW,198,0.8,2.3,62,0.00,SCT,SCT,0.00,643.0,WeatherDisplay:10.37,2013-08-04 15:47:00,
2013-08-04 09:52:00,72.5,57.8,29.86,SSW,200,0.5,3.0,60,0.00,SCT,SCT,0.00,737.0,WeatherDisplay:10.37,2013-08-04 15:52:00,
2013-08-04 09:57:00,72.7,57.5,29.85,SSW,195,0.0,1.1,59,0.00,SCT,SCT,0.00,671.0,WeatherDisplay:10.37,2013-08-04 15:57:00,
2013-08-04 10:02:00,73.1,57.9,29.85,SSW,195,0.0,0.0,59,0.00,SCT,SCT,0.00,693.0,WeatherDisplay:10.37,2013-08-04 16:02:00,
2013-08-04 10:07:00,73.5,57.3,29.85,SSE,163,0.5,2.3,57,0.00,SCT,SCT,0.00,740.0,WeatherDisplay:10.37,2013-08-04 16:07:00,
2013-08-04 10:12:00,73.7,57.5,29.85,South,180,1.2,3.4,57,0.00,SCT,SCT,0.00,703.0,WeatherDisplay:10.37,2013-08-04 16:12:00,
2013-08-04 10:17:00,73.9,56.7,29.85,South,180,0.6,2.3,55,0.00,SCT,SCT,0.00,650.0,WeatherDisplay:10.37,2013-08-04 16:17:00,
2013-08-04 10:22:00,74.6,57.9,29.85,South,179,0.0,0.0,56,0.00,SCT,SCT,0.00,645.0,WeatherDisplay:10.37,2013-08-04 16:22:00,
2013-08-04 10:27:00,74.9,57.1,29.84,SSE,164,0.0,0.0,54,0.00,SCT,SCT,0.00,772.0,WeatherDisplay:10.37,2013-08-04 16:27:00,
2013-08-04 10:32:00,75.3,57.5,29.84,SSE,163,0.0,0.0,54,0.00,SCT,SCT,0.00,782.0,WeatherDisplay:10.37,2013-08-04 16:32:00,
2013-08-04 10:37:00,75.7,57.9,29.84,ESE,108,1.2,3.4,54,0.00,SCT,SCT,0.00,793.0,WeatherDisplay:10.37,2013-08-04 16:37:00,
2013-08-04 10:42:00,76.0,57.6,29.84,ESE,105,0.5,3.4,53,0.00,SCT,SCT,0.00,805.0,WeatherDisplay:10.37,2013-08-04 16:42:00,
2013-08-04 10:47:00,76.6,58.7,29.83,ESE,104,0.9,3.4,54,0.00,SCT,SCT,0.00,816.0,WeatherDisplay:10.37,2013-08-04 16:47:00,
2013-08-04 10:52:00,77.1,57.0,29.82,ESE,103,0.0,1.1,50,0.00,SCT,SCT,0.00,828.0,WeatherDisplay:10.37,2013-08-04 16:52:00,
2013-08-04 10:57:00,77.6,57.5,29.82,East,101,0.1,1.1,50,0.00,SCT,SCT,0.00,842.0,WeatherDisplay:10.37,2013-08-04 16:57:00,
2013-08-04 11:02:00,77.9,57.2,29.83,East,101,1.0,3.4,49,0.00,SCT,SCT,0.00,854.0,WeatherDisplay:10.37,2013-08-04 17:02:00,
2013-08-04 11:07:00,78.7,57.9,29.83,NNE,22,3.9,4.6,49,0.00,SCT,SCT,0.00,844.0,WeatherDisplay:10.37,2013-08-04 17:07:00,
2013-08-04 11:12:00,78.8,57.4,29.83,ENE,72,1.5,3.4,48,0.00,SCT,SCT,0.00,786.0,WeatherDisplay:10.37,2013-08-04 17:12:00,
2013-08-04 11:17:00,79.0,58.2,29.83,NNE,31,3.0,6.9,49,0.00,SCT,SCT,0.00,872.0,WeatherDisplay:10.37,2013-08-04 17:17:00,
2013-08-04 11:22:00,79.1,57.1,29.83,ENE,64,0.2,1.1,47,0.00,SCT,SCT,0.00,879.0,WeatherDisplay:10.37,2013-08-04 17:22:00,
2013-08-04 11:27:00,79.7,58.3,29.82,NNE,25,3.3,5.8,48,0.00,SCT,SCT,0.00,886.0,WeatherDisplay:10.37,2013-08-04 17:27:00,
2013-08-04 11:32:00,80.0,59.7,29.81,East,87,0.0,0.0,50,0.00,SCT,SCT,0.00,893.0,WeatherDisplay:10.37,2013-08-04 17:32:00,
2013-08-04 11:36:00,80.3,58.8,29.81,ENE,68,2.5,5.8,48,0.00,SCT,SCT,0.00,900.0,WeatherDisplay:10.37,2013-08-04 17:36:00,
2013-08-04 11:42:00,80.4,59.5,29.81,ENE,59,0.9,2.3,49,0.00,SCT,SCT,0.00,907.0,WeatherDisplay:10.37,2013-08-04 17:42:00,
2013-08-04 11:47:00,80.7,58.6,29.81,NE,43,5.0,5.8,47,0.00,SCT,SCT,0.00,914.0,WeatherDisplay:10.37,2013-08-04 17:47:00,
2013-08-04 11:52:00,80.8,58.1,29.81,ENE,57,4.1,6.9,46,0.00,SCT,SCT,0.00,919.0,WeatherDisplay:10.37,2013-08-04 17:52:00,
2013-08-04 11:57:00,80.7,56.1,29.81,ENE,71,1.8,3.4,43,0.00,SCT,SCT,0.00,926.0,WeatherDisplay:10.37,2013-08-04 17:57:00,
2013-08-04 12:02:00,80.9,57.6,29.81,NE,36,1.5,3.4,45,0.00,SCT,SCT,0.00,930.0,WeatherDisplay:10.37,2013-08-04 18:02:00,
2013-08-04 12:07:00,81.7,58.3,29.80,NE,51,1.7,4.0,45,0.00,SCT,SCT,0.00,935.0,WeatherDisplay:10.37,2013-08-04 18:07:00,
2013-08-04 12:12:00,81.9,59.1,29.79,ENE,73,1.3,3.4,46,0.00,SCT,SCT,0.00,942.0,WeatherDisplay:10.37,2013-08-04 18:12:00,
2013-08-04 12:17:00,82.0,59.2,29.79,ENE,59,1.5,5.8,46,0.00,SCT,SCT,0.00,944.0,WeatherDisplay:10.37,2013-08-04 18:17:00,
2013-08-04 12:22:00,82.4,59.5,29.78,ENE,70,1.4,4.6,46,0.00,SCT,SCT,0.00,949.0,WeatherDisplay:10.37,2013-08-04 18:22:00,
2013-08-04 12:27:00,82.9,59.4,29.79,NE,39,0.7,3.4,45,0.00,SCT,SCT,0.00,954.0,WeatherDisplay:10.37,2013-08-04 18:27:00,
2013-08-04 12:31:00,83.3,60.4,29.78,NNE,30,1.1,3.4,46,0.00,SCT,SCT,0.00,958.0,WeatherDisplay:10.37,2013-08-04 18:31:00,
2013-08-04 12:37:00,83.5,58.6,29.77,ESE,111,0.4,3.4,43,0.00,SCT,SCT,0.00,962.0,WeatherDisplay:10.37,2013-08-04 18:37:00,
2013-08-04 12:42:00,83.9,59.7,29.77,ESE,106,2.1,4.6,44,0.00,SCT,SCT,0.00,965.0,WeatherDisplay:10.37,2013-08-04 18:42:00,
2013-08-04 12:47:00,84.5,59.5,29.77,ESE,107,1.4,3.4,43,0.00,SCT,SCT,0.00,976.0,WeatherDisplay:10.37,2013-08-04 18:47:00,
2013-08-04 12:51:00,84.9,57.9,29.77,SE,127,0.7,3.4,40,0.00,SCT,SCT,0.00,979.0,WeatherDisplay:10.37,2013-08-04 18:51:00,
2013-08-04 12:52:00,85.0,58.0,29.77,SE,127,1.1,4.6,40,0.00,SCT,SCT,0.00,979.0,WeatherDisplay:10.37,2013-08-04 18:52:00,
2013-08-04 12:57:00,85.0,58.0,29.77,ENE,69,0.0,3.4,40,0.00,SCT,SCT,0.00,984.0,WeatherDisplay:10.37,2013-08-04 18:57:00,
2013-08-04 13:02:00,85.8,57.3,29.75,NNE,26,2.0,5.8,38,0.00,SCT,SCT,0.00,990.0,WeatherDisplay:10.37,2013-08-04 19:02:00,
2013-08-04 13:07:00,85.9,58.8,29.76,NE,44,0.2,1.1,40,0.00,SCT,SCT,0.00,998.0,WeatherDisplay:10.37,2013-08-04 19:07:00,
2013-08-04 13:12:00,85.9,59.5,29.75,NE,41,0.2,1.1,41,0.00,SCT,SCT,0.00,979.0,WeatherDisplay:10.37,2013-08-04 19:12:00,
2013-08-04 13:17:00,86.5,57.1,29.76,ESE,106,1.6,3.4,37,0.00,SCT,SCT,0.00,981.0,WeatherDisplay:10.37,2013-08-04 19:17:00,
2013-08-04 13:22:00,86.8,57.4,29.75,ESE,106,0.7,2.3,37,0.00,SCT,SCT,0.00,986.0,WeatherDisplay:10.37,2013-08-04 19:22:00,
2013-08-04 13:27:00,87.1,54.5,29.76,ESE,103,2.3,9.2,33,0.00,SCT,SCT,0.00,986.0,WeatherDisplay:10.37,2013-08-04 19:27:00,
2013-08-04 13:32:00,87.4,54.8,29.76,NNE,15,4.7,6.9,33,0.00,SCT,SCT,0.00,981.0,WeatherDisplay:10.37,2013-08-04 19:32:00,
2013-08-04 13:37:00,87.4,52.2,29.76,ENE,76,0.8,3.4,30,0.00,SCT,SCT,0.00,981.0,WeatherDisplay:10.37,2013-08-04 19:37:00,
2013-08-04 13:42:00,87.4,53.1,29.76,North,10,0.1,1.1,31,0.00,SCT,SCT,0.00,976.0,WeatherDisplay:10.37,2013-08-04 19:42:00,
2013-08-04 13:47:00,88.3,52.0,29.75,ENE,60,1.3,5.8,29,0.00,SCT,SCT,0.00,983.0,WeatherDisplay:10.37,2013-08-04 19:47:00,
2013-08-04 13:52:00,88.7,53.3,29.75,ESE,105,1.7,3.4,30,0.00,SCT,SCT,0.00,981.0,WeatherDisplay:10.37,2013-08-04 19:52:00,
2013-08-04 13:57:00,88.5,52.2,29.75,ENE,72,2.0,5.8,29,0.00,SCT,SCT,0.00,993.0,WeatherDisplay:10.37,2013-08-04 19:57:00,
2013-08-04 14:01:00,88.5,51.2,29.75,NE,45,0.4,2.3,28,0.00,SCT,SCT,0.00,998.0,WeatherDisplay:10.37,2013-08-04 20:01:00,
2013-08-04 14:07:00,89.0,53.5,29.74,NNE,28,4.1,9.2,30,0.00,SCT,SCT,0.00,979.0,WeatherDisplay:10.37,2013-08-04 20:07:00,
2013-08-04 14:11:00,89.1,53.6,29.73,ESE,103,2.1,3.4,30,0.00,SCT,SCT,0.00,965.0,WeatherDisplay:10.37,2013-08-04 20:11:00,
2013-08-04 14:17:00,89.1,54.5,29.74,ESE,105,1.6,3.4,31,0.00,SCT,SCT,0.00,977.0,WeatherDisplay:10.37,2013-08-04 20:17:00,
2013-08-04 14:22:00,89.3,52.9,29.73,East,98,0.1,1.1,29,0.00,SCT,SCT,0.00,990.0,WeatherDisplay:10.37,2013-08-04 20:22:00,
2013-08-04 14:27:00,89.7,53.2,29.72,SE,125,3.7,5.8,29,0.00,SCT,SCT,0.00,1078.0,WeatherDisplay:10.37,2013-08-04 20:27:00,
2013-08-04 14:32:00,89.5,53.0,29.73,ESE,118,0.0,1.1,29,0.00,SCT,SCT,0.00,993.0,WeatherDisplay:10.37,2013-08-04 20:32:00,
2013-08-04 14:37:00,89.6,55.0,29.72,ESE,120,3.2,6.9,31,0.00,SCT,SCT,0.00,969.0,WeatherDisplay:10.37,2013-08-04 20:37:00,
2013-08-04 14:42:00,89.3,51.9,29.73,SE,130,3.1,5.8,28,0.00,SCT,SCT,0.00,969.0,WeatherDisplay:10.37,2013-08-04 20:42:00,
2013-08-04 14:47:00,89.4,52.0,29.73,East,96,2.2,3.4,28,0.00,SCT,SCT,0.00,944.0,WeatherDisplay:10.37,2013-08-04 20:47:00,
2013-08-04 14:52:00,89.6,52.2,29.72,ESE,107,3.6,6.9,28,0.00,SCT,SCT,0.00,677.0,WeatherDisplay:10.37,2013-08-04 20:52:00,
2013-08-04 14:57:00,89.7,51.3,29.71,NE,48,1.9,4.6,27,0.00,SCT,SCT,0.00,788.0,WeatherDisplay:10.37,2013-08-04 20:57:00,
2013-08-04 15:01:00,90.0,49.5,29.72,ESE,109,4.3,6.9,25,0.00,SCT,SCT,0.00,939.0,WeatherDisplay:10.37,2013-08-04 21:01:00,
2013-08-04 15:07:00,90.1,49.5,29.72,NNE,21,3.6,5.8,25,0.00,SCT,SCT,0.00,933.0,WeatherDisplay:10.37,2013-08-04 21:07:00,
2013-08-04 15:11:00,90.1,48.4,29.72,ENE,74,0.3,3.4,24,0.00,SCT,SCT,0.00,494.0,WeatherDisplay:10.37,2013-08-04 21:11:00,
2013-08-04 15:17:00,90.2,49.6,29.72,NNE,17,2.2,5.0,25,0.00,SCT,SCT,0.00,362.0,WeatherDisplay:10.37,2013-08-04 21:17:00,
2013-08-04 15:22:00,90.1,49.5,29.72,NNE,17,0.0,1.1,25,0.00,SCT,SCT,0.00,320.0,WeatherDisplay:10.37,2013-08-04 21:22:00,
2013-08-04 15:26:00,89.8,47.1,29.72,NE,36,1.6,5.8,23,0.00,SCT,SCT,0.00,279.0,WeatherDisplay:10.37,2013-08-04 21:26:00,
2013-08-04 15:32:00,89.4,47.9,29.72,NE,40,3.6,4.6,24,0.00,SCT,SCT,0.00,253.0,WeatherDisplay:10.37,2013-08-04 21:32:00,
2013-08-04 15:36:00,89.0,50.7,29.72,NE,40,0.6,2.3,27,0.00,SCT,SCT,0.00,265.0,WeatherDisplay:10.37,2013-08-04 21:36:00,
2013-08-04 15:42:00,88.6,50.3,29.72,NE,40,0.5,3.4,27,0.00,SCT,SCT,0.00,336.0,WeatherDisplay:10.37,2013-08-04 21:42:00,
2013-08-04 15:47:00,88.4,50.2,29.73,NE,39,0.6,3.0,27,0.00,SCT,SCT,0.00,367.0,WeatherDisplay:10.37,2013-08-04 21:47:00,
2013-08-04 15:49:00,88.4,48.1,29.74,NE,39,0.0,1.1,25,0.00,SCT,SCT,0.00,355.0,WeatherDisplay:10.37,2013-08-04 21:49:00,
2013-08-04 15:54:00,88.4,53.0,29.73,NE,38,0.0,0.0,30,0.00,SCT,SCT,0.00,308.0,WeatherDisplay:10.37,2013-08-04 21:54:00,
2013-08-04 15:58:00,88.4,52.1,29.73,NE,38,0.0,1.1,29,0.00,SCT,SCT,0.00,285.0,WeatherDisplay:10.37,2013-08-04 21:58:00,
2013-08-04 16:04:00,88.3,51.1,29.73,NE,38,0.5,2.3,28,0.00,SCT,SCT,0.00,332.0,WeatherDisplay:10.37,2013-08-04 22:04:00,
2013-08-04 16:09:00,88.1,50.9,29.73,NE,36,0.3,2.0,28,0.00,SCT,SCT,0.00,378.0,WeatherDisplay:10.37,2013-08-04 22:09:00,
2013-08-04 16:14:00,88.0,51.8,29.72,NE,37,0.2,1.1,29,0.00,SCT,SCT,0.00,279.0,WeatherDisplay:10.37,2013-08-04 22:14:00,
2013-08-04 16:18:00,88.1,53.7,29.73,NE,37,0.2,2.0,31,0.00,SCT,SCT,0.00,243.0,WeatherDisplay:10.37,2013-08-04 22:18:00,
2013-08-04 16:24:00,87.9,50.7,29.72,NNE,33,2.5,4.6,28,0.00,SCT,SCT,0.00,255.0,WeatherDisplay:10.37,2013-08-04 22:24:00,
2013-08-04 16:28:00,87.7,51.5,29.73,NNE,33,0.1,1.1,29,0.00,SCT,SCT,0.00,311.0,WeatherDisplay:10.37,2013-08-04 22:28:00,
2013-08-04 16:34:00,87.5,52.2,29.73,NNE,33,0.0,1.0,30,0.00,SCT,SCT,0.00,269.0,WeatherDisplay:10.37,2013-08-04 22:34:00,
2013-08-04 16:39:00,87.5,54.9,29.73,NNE,33,0.8,3.4,33,0.00,SCT,SCT,0.00,213.0,WeatherDisplay:10.37,2013-08-04 22:39:00,
2013-08-04 16:44:00,87.4,57.2,29.72,NNW,348,0.4,1.1,36,0.00,SCT,SCT,0.00,195.0,WeatherDisplay:10.37,2013-08-04 22:44:00,
2013-08-04 16:49:00,87.1,57.7,29.72,NNE,13,0.8,3.4,37,0.00,SCT,SCT,0.00,207.0,WeatherDisplay:10.37,2013-08-04 22:49:00,
2013-08-04 16:53:00,86.8,57.4,29.72,North,355,2.9,5.8,37,0.00,SCT,SCT,0.00,178.0,WeatherDisplay:10.37,2013-08-04 22:53:00,
2013-08-04 16:58:00,86.4,57.0,29.72,NNE,25,0.7,4.0,37,0.00,SCT,SCT,0.00,148.0,WeatherDisplay:10.37,2013-08-04 22:58:00,
2013-08-04 17:04:00,86.0,55.9,29.73,NNE,24,0.9,3.0,36,0.00,BKN,BKN,0.00,116.0,WeatherDisplay:10.37,2013-08-04 23:04:00,
2013-08-04 17:08:00,85.7,57.2,29.73,NNE,16,0.0,1.0,38,0.00,BKN,BKN,0.00,111.0,WeatherDisplay:10.37,2013-08-04 23:08:00,
2013-08-04 17:13:00,85.4,55.4,29.74,NNE,15,0.1,2.3,36,0.00,BKN,BKN,0.00,88.0,WeatherDisplay:10.37,2013-08-04 23:13:00,
2013-08-04 17:19:00,85.1,55.9,29.74,East,88,0.5,2.3,37,0.00,BKN,BKN,0.00,86.0,WeatherDisplay:10.37,2013-08-04 23:19:00,
2013-08-04 17:24:00,84.9,55.7,29.75,East,89,0.0,1.1,37,0.00,BKN,BKN,0.00,77.0,WeatherDisplay:10.37,2013-08-04 23:24:00,
2013-08-04 17:29:00,84.8,54.9,29.75,East,89,0.0,0.0,36,0.00,BKN,BKN,0.00,60.0,WeatherDisplay:10.37,2013-08-04 23:29:00,
2013-08-04 17:34:00,84.8,55.6,29.75,East,89,0.0,0.0,37,0.00,BKN,BKN,0.00,53.0,WeatherDisplay:10.37,2013-08-04 23:34:00,
2013-08-04 17:39:00,84.7,55.5,29.75,East,88,1.1,3.4,37,0.00,BKN,BKN,0.00,39.0,WeatherDisplay:10.37,2013-08-04 23:39:00,
2013-08-04 17:43:00,84.5,55.4,29.76,East,92,1.0,3.4,37,0.00,BKN,BKN,0.00,26.0,WeatherDisplay:10.37,2013-08-04 23:43:00,
2013-08-04 17:49:00,84.1,53.5,29.76,WSW,242,0.4,2.0,35,0.00,BKN,BKN,0.00,19.0,WeatherDisplay:10.37,2013-08-04 23:49:00,
2013-08-04 17:54:00,83.6,52.3,29.77,SW,226,10.2,16.0,34,0.00,BKN,BKN,0.00,21.0,WeatherDisplay:10.37,2013-08-04 23:54:00,
2013-08-04 17:59:00,80.2,59.3,29.78,SW,225,12.1,19.5,49,0.03,RA,RA,0.04,26.0,WeatherDisplay:10.37,2013-08-04 23:59:00,
2013-08-04 18:04:00,74.7,56.9,29.82,SE,136,7.2,14.9,54,0.08,RA,RA,0.08,37.0,WeatherDisplay:10.37,2013-08-05 00:04:00,
2013-08-04 18:09:00,72.1,57.0,29.84,ESE,123,5.7,9.2,59,0.10,RA,RA,0.10,47.0,WeatherDisplay:10.37,2013-08-05 00:09:00,
2013-08-04 18:14:00,70.8,56.2,29.85,ESE,118,0.9,3.4,60,0.12,RA,RA,0.13,47.0,WeatherDisplay:10.37,2013-08-05 00:14:00,
2013-08-04 18:19:00,70.4,58.1,29.86,SSE,153,0.9,3.4,65,0.17,RA,RA,0.17,39.0,WeatherDisplay:10.37,2013-08-05 00:19:00,
2013-08-04 18:24:00,69.2,57.8,29.85,SE,126,6.1,9.2,67,0.18,RA,RA,0.18,32.0,WeatherDisplay:10.37,2013-08-05 00:24:00,
2013-08-04 18:29:00,68.1,57.5,29.87,SE,143,4.9,11.5,69,0.18,RA,RA,0.18,30.0,WeatherDisplay:10.37,2013-08-05 00:29:00,
2013-08-04 18:34:00,67.6,58.2,29.87,ESE,118,2.9,4.6,72,0.18,BKN,BKN,0.18,37.0,WeatherDisplay:10.37,2013-08-05 00:34:00,
2013-08-04 18:39:00,67.0,58.1,29.87,East,86,3.0,5.0,73,0.18,BKN,BKN,0.18,53.0,WeatherDisplay:10.37,2013-08-05 00:39:00,
2013-08-04 18:44:00,66.5,57.6,29.86,SE,126,3.2,5.8,73,0.18,BKN,BKN,0.18,44.0,WeatherDisplay:10.37,2013-08-05 00:44:00,
2013-08-04 18:48:00,66.5,57.2,29.86,ESE,123,3.0,4.6,72,0.18,BKN,BKN,0.18,25.0,WeatherDisplay:10.37,2013-08-05 00:48:00,
2013-08-04 18:53:00,66.7,57.0,29.86,ESE,105,3.3,10.3,71,0.18,BKN,BKN,0.18,19.0,WeatherDisplay:10.37,2013-08-05 00:53:00,
2013-08-04 18:58:00,67.0,57.3,29.86,East,99,0.1,1.1,71,0.15,BKN,BKN,0.18,23.0,WeatherDisplay:10.37,2013-08-05 00:58:00,
2013-08-04 19:04:00,67.1,57.4,29.84,East,96,0.9,3.4,71,0.10,BKN,BKN,0.18,26.0,WeatherDisplay:10.37,2013-08-05 01:04:00,
2013-08-04 19:09:00,67.2,57.5,29.84,East,101,0.9,3.4,71,0.08,BKN,BKN,0.18,21.0,WeatherDisplay:10.37,2013-08-05 01:09:00,
2013-08-04 19:14:00,67.2,57.1,29.84,ESE,104,0.2,1.1,70,0.06,BKN,BKN,0.18,18.0,WeatherDisplay:10.37,2013-08-05 01:14:00,
2013-08-04 19:19:00,67.2,56.7,29.84,ESE,103,0.5,2.3,69,0.01,BKN,BKN,0.18,16.0,WeatherDisplay:10.37,2013-08-05 01:19:00,
2013-08-04 19:23:00,67.3,56.8,29.84,ESE,105,0.5,3.4,69,0.00,OVC,OVC,0.18,9.0,WeatherDisplay:10.37,2013-08-05 01:23:00,
2013-08-04 19:29:00,67.5,56.6,29.83,East,93,1.1,3.4,68,0.00,OVC,OVC,0.18,5.0,WeatherDisplay:10.37,2013-08-05 01:29:00,
2013-08-04 19:34:00,67.7,56.3,29.84,East,93,0.0,0.0,67,0.00,OVC,OVC,0.18,5.0,WeatherDisplay:10.37,2013-08-05 01:34:00,
2013-08-04 19:39:00,67.9,56.9,29.84,East,93,0.5,2.3,68,0.00,OVC,OVC,0.18,0.0,WeatherDisplay:10.37,2013-08-05 01:39:00,
2013-08-04 19:44:00,68.1,57.1,29.84,East,98,1.4,3.4,68,0.00,OVC,OVC,0.18,0.0,WeatherDisplay:10.37,2013-08-05 01:44:00,
2013-08-04 19:49:00,68.3,56.9,29.85,East,98,0.0,0.0,67,0.00,OVC,OVC,0.18,0.0,WeatherDisplay:10.37,2013-08-05 01:49:00,
2013-08-04 19:54:00,68.5,57.1,29.85,South,180,0.5,3.0,67,0.00,OVC,OVC,0.18,0.0,WeatherDisplay:10.37,2013-08-05 01:54:00,
2013-08-04 19:58:00,68.6,57.2,29.85,SSE,163,0.1,1.1,67,0.00,OVC,OVC,0.18,0.0,WeatherDisplay:10.37,2013-08-05 01:58:00,
2013-08-04 20:03:00,68.8,57.4,29.82,SSE,163,0.0,1.1,67,0.00,OVC,OVC,0.18,0.0,WeatherDisplay:10.37,2013-08-05 02:03:00,
2013-08-04 20:09:00,68.8,57.4,29.82,SSE,163,0.0,0.0,67,0.00,OVC,OVC,0.18,0.0,WeatherDisplay:10.37,2013-08-05 02:09:00,
2013-08-04 20:14:00,69.0,57.6,29.83,South,173,0.2,3.0,67,0.00,OVC,OVC,0.18,0.0,WeatherDisplay:10.37,2013-08-05 02:14:00,
2013-08-04 20:19:00,69.0,57.2,29.83,South,178,0.5,2.3,66,0.00,OVC,OVC,0.18,0.0,WeatherDisplay:10.37,2013-08-05 02:19:00,
2013-08-04 20:23:00,69.0,57.2,29.83,South,178,0.1,0.0,66,0.00,OVC,OVC,0.18,0.0,WeatherDisplay:10.37,2013-08-05 02:23:00,
2013-08-04 20:28:00,69.1,56.8,29.83,South,178,0.1,1.1,65,0.00,OVC,OVC,0.18,0.0,WeatherDisplay:10.37,2013-08-05 02:28:00,
2013-08-04 20:34:00,69.2,56.1,29.84,SSE,161,3.0,5.8,63,0.00,OVC,OVC,0.18,0.0,WeatherDisplay:10.37,2013-08-05 02:34:00,
2013-08-04 20:39:00,69.5,55.9,29.85,SE,124,2.2,5.8,62,0.00,OVC,OVC,0.18,0.0,WeatherDisplay:10.37,2013-08-05 02:39:00,
2013-08-04 20:44:00,70.1,56.0,29.86,SSW,195,1.6,3.4,61,0.00,OVC,OVC,0.18,0.0,WeatherDisplay:10.37,2013-08-05 02:44:00,
2013-08-04 20:49:00,70.6,56.0,29.85,SW,221,0.8,3.4,60,0.00,OVC,OVC,0.18,0.0,WeatherDisplay:10.37,2013-08-05 02:49:00,
2013-08-04 20:54:00,70.8,56.7,29.85,SW,221,0.3,2.3,61,0.00,OVC,OVC,0.18,0.0,WeatherDisplay:10.37,2013-08-05 02:54:00,
2013-08-04 20:59:00,70.9,56.8,29.85,SW,221,0.0,0.0,61,0.00,OVC,OVC,0.18,0.0,WeatherDisplay:10.37,2013-08-05 02:59:00,
2013-08-04 21:03:00,71.0,56.9,29.83,SW,221,1.6,4.6,61,0.00,OVC,OVC,0.18,0.0,WeatherDisplay:10.37,2013-08-05 03:03:00,
2013-08-04 21:09:00,71.0,56.9,29.83,SSW,213,1.5,4.6,61,0.00,OVC,OVC,0.18,0.0,WeatherDisplay:10.37,2013-08-05 03:09:00,
2013-08-04 21:14:00,71.0,55.5,29.84,SSW,205,1.9,5.8,58,0.00,OVC,OVC,0.18,0.0,WeatherDisplay:10.37,2013-08-05 03:14:00,
2013-08-04 21:19:00,71.0,55.5,29.84,SW,235,1.2,3.4,58,0.00,OVC,OVC,0.18,0.0,WeatherDisplay:10.37,2013-08-05 03:19:00,
2013-08-04 21:24:00,71.1,55.6,29.84,SW,234,0.4,1.1,58,0.00,SCT,SCT,0.18,0.0,WeatherDisplay:10.37,2013-08-05 03:24:00,
2013-08-04 21:29:00,71.1,55.6,29.85,SSW,196,2.6,6.9,58,0.00,SCT,SCT,0.18,0.0,WeatherDisplay:10.37,2013-08-05 03:29:00,
2013-08-04 21:34:00,71.2,55.7,29.84,SSW,192,1.5,3.4,58,0.00,SCT,SCT,0.18,0.0,WeatherDisplay:10.37,2013-08-05 03:34:00,
2013-08-04 21:39:00,71.2,56.1,29.84,South,190,3.6,6.9,59,0.00,SCT,SCT,0.18,0.0,WeatherDisplay:10.37,2013-08-05 03:39:00,
2013-08-04 21:44:00,71.2,55.7,29.84,SSW,209,3.9,9.2,58,0.00,SCT,SCT,0.18,0.0,WeatherDisplay:10.37,2013-08-05 03:44:00,
2013-08-04 21:48:00,71.0,55.5,29.84,South,175,2.5,5.8,58,0.00,SCT,SCT,0.18,0.0,WeatherDisplay:10.37,2013-08-05 03:48:00,
2013-08-04 21:53:00,70.9,55.9,29.84,South,189,4.4,8.1,59,0.00,SCT,SCT,0.18,0.0,WeatherDisplay:10.37,2013-08-05 03:53:00,
2013-08-04 21:58:00,70.7,56.1,29.83,SSW,209,3.2,5.0,60,0.00,SCT,SCT,0.18,0.0,WeatherDisplay:10.37,2013-08-05 03:58:00,
2013-08-04 22:01:00,70.6,55.6,29.84,South,188,5.6,12.6,59,0.00,SCT,SCT,0.18,0.0,WeatherDisplay:10.37,2013-08-05 04:01:00,
2013-08-04 22:06:00,70.4,55.8,29.81,SSW,206,2.3,4.6,60,0.00,BKN,BKN,0.18,0.0,WeatherDisplay:10.37,2013-08-05 04:06:00,
2013-08-04 22:11:00,70.2,56.6,29.80,South,188,2.9,8.1,62,0.00,BKN,BKN,0.18,0.0,WeatherDisplay:10.37,2013-08-05 04:11:00,
2013-08-04 22:16:00,69.9,56.3,29.80,SSE,163,3.8,9.2,62,0.00,BKN,BKN,0.18,0.0,WeatherDisplay:10.37,2013-08-05 04:16:00,
2013-08-04 22:21:00,69.8,55.7,29.79,South,183,2.5,5.8,61,0.00,BKN,BKN,0.18,0.0,WeatherDisplay:10.37,2013-08-05 04:21:00,
2013-08-04 22:26:00,69.8,55.7,29.79,SSE,148,4.0,5.8,61,0.00,BKN,BKN,0.18,0.0,WeatherDisplay:10.37,2013-08-05 04:26:00,
2013-08-04 22:31:00,69.9,55.4,29.79,South,185,5.4,11.5,60,0.00,BKN,BKN,0.18,0.0,WeatherDisplay:10.37,2013-08-05 04:31:00,
2013-08-04 22:36:00,70.0,55.0,29.78,SE,138,3.1,5.0,59,0.00,BKN,BKN,0.18,0.0,WeatherDisplay:10.37,2013-08-05 04:36:00,
2013-08-04 22:41:00,70.2,55.2,29.78,South,173,1.5,3.4,59,0.00,BKN,BKN,0.18,0.0,WeatherDisplay:10.37,2013-08-05 04:41:00,
2013-08-04 22:46:00,70.3,54.8,29.77,SSE,164,6.8,13.8,58,0.00,BKN,BKN,0.18,0.0,WeatherDisplay:10.37,2013-08-05 04:46:00,
2013-08-04 22:51:00,70.4,54.4,29.77,SSE,167,8.0,16.1,57,0.00,BKN,BKN,0.18,0.0,WeatherDisplay:10.37,2013-08-05 04:51:00,
2013-08-04 22:56:00,70.5,54.5,29.77,SSE,163,4.8,10.0,57,0.00,BKN,BKN,0.18,0.0,WeatherDisplay:10.37,2013-08-05 04:56:00,
2013-08-04 23:01:00,70.5,54.0,29.77,SW,224,1.3,5.8,56,0.00,BKN,BKN,0.18,0.0,WeatherDisplay:10.37,2013-08-05 05:01:00,
2013-08-04 23:06:00,70.5,54.5,29.75,SW,223,3.6,6.9,57,0.00,BKN,BKN,0.18,0.0,WeatherDisplay:10.37,2013-08-05 05:06:00,
2013-08-04 23:11:00,70.4,54.9,29.76,South,180,2.2,11.5,58,0.00,BKN,BKN,0.18,0.0,WeatherDisplay:10.37,2013-08-05 05:11:00,
2013-08-04 23:16:00,70.4,54.4,29.75,SSW,208,3.2,5.8,57,0.00,BKN,BKN,0.18,0.0,WeatherDisplay:10.37,2013-08-05 05:16:00,
2013-08-04 23:21:00,70.4,54.4,29.75,SSW,192,3.1,10.3,57,0.00,BKN,BKN,0.18,0.0,WeatherDisplay:10.37,2013-08-05 05:21:00,
2013-08-04 23:26:00,70.5,54.5,29.73,SW,232,5.8,12.6,57,0.00,BKN,BKN,0.18,0.0,WeatherDisplay:10.37,2013-08-05 05:26:00,
2013-08-04 23:31:00,70.6,54.1,29.73,South,191,5.7,12.6,56,0.00,BKN,BKN,0.18,0.0,WeatherDisplay:10.37,2013-08-05 05:31:00,
2013-08-04 23:36:00,70.7,54.2,29.72,South,184,5.5,13.0,56,0.00,BKN,BKN,0.18,0.0,WeatherDisplay:10.37,2013-08-05 05:36:00,
2013-08-04 23:41:00,70.8,53.8,29.72,South,190,1.2,9.2,55,0.00,BKN,BKN,0.18,0.0,WeatherDisplay:10.37,2013-08-05 05:41:00,
2013-08-04 23:46:00,70.9,53.9,29.72,SSE,153,2.4,10.3,55,0.00,BKN,BKN,0.18,0.0,WeatherDisplay:10.37,2013-08-05 05:46:00,
2013-08-04 23:51:00,70.9,53.9,29.72,South,182,2.8,4.6,55,0.00,BKN,BKN,0.18,0.0,WeatherDisplay:10.37,2013-08-05 05:51:00,
2013-08-04 23:56:00,70.9,53.4,29.71,SE,128,2.1,12.6,54,0.00,BKN,BKN,0.18,0.0,WeatherDisplay:10.37,2013-08-05 05:56:00,